CW1656 Weather Reports


Display with metric or nautical units.
time (UTC)temp
F
wind
direction
speed
MPH
gust
MPH
rain 1hr
in
rain 24hr
in
rain mn
in
humidity
%
barometer
mb
20260903031522 69 153 0.0 2.0 0.00 0.94 0.94 98 1013.7
20260903030013 69 167 0.0 3.0 0.00 0.94 0.94 98 1014.0
20260903024511 69 123 0.0 4.0 0.00 0.94 0.94 98 1014.1
20260903023011 69 138 1.0 3.0 0.00 0.94 0.94 98 1014.2
20260903021514 69 163 1.0 8.0 0.02 0.94 0.94 98 1014.3
20260903020029 70 148 0.0 5.0 0.03 0.94 0.94 98 1015.1
20260903014509 70 151 2.0 8.0 0.04 0.94 0.94 97 1013.1
20260903013008 70 177 1.0 4.0 0.05 0.93 0.93 97 1013.7
20260903011508 69 132 2.0 7.0 0.05 0.92 0.92 97 1014.6
20260903010012 69 134 2.0 3.0 0.05 0.91 0.91 97 1014.3
20260903004507 70 174 0.0 2.0 0.07 0.90 0.90 96 1014.2
20260903003005 70 155 0.0 1.0 0.35 0.88 0.88 96 1014.2
20260903001505 69 155 0.0 6.0 0.63 0.86 0.86 95 1014.0
20260903000005 70 111 0.0 1.0 0.68 0.85 0.85 94 1013.5
20260902234504 70 138 2.0 5.0 0.65 0.82 0.82 92 1014.6
20260902233003 72 329 5.0 13.0 0.27 0.44 0.44 87 1014.7
20260902231502 79 360 0.0 4.0 0.06 0.23 0.23 92 1013.7
20260902230000 79 140 0.0 3.0 0.00 0.17 0.17 91 1012.5
20260902224614 79 165 1.0 2.0 0.00 0.17 0.17 89 1012.5
20260902223059 79 165 0.0 1.0 0.00 0.17 0.17 88 1012.7
20260902221559 80 165 0.0 0.0 0.00 0.17 0.17 87 1012.6
20260902220101 81 165 0.0 1.0 0.00 0.17 0.17 86 1012.5
20260902214556 81 165 0.0 0.0 0.00 0.17 0.17 87 1012.7
20260902213054 81 169 0.0 0.0 0.00 0.17 0.17 87 1013.1
20260902211552 82 169 0.0 2.0 0.00 0.17 0.17 86 1013.2
20260902210050 82 126 0.0 0.0 0.00 0.17 0.17 85 1013.5
20260902204551 82 126 0.0 3.0 0.00 0.17 0.17 82 1013.7
20260902203046 83 154 1.0 4.0 0.00 0.17 0.17 81 1014.4
20260902201554 83 267 0.0 2.0 0.00 0.17 0.17 80 1014.5
20260902200046 83 169 2.0 6.0 0.00 0.17 0.17 79 1014.8
20260902194551 83 66 0.0 4.0 0.00 0.17 0.17 79 1015.0
20260902193045 82 76 0.0 6.0 0.00 0.17 0.17 80 1015.0
20260902191543 82 289 0.0 7.0 0.00 0.17 0.17 81 1014.9
20260902190043 81 138 1.0 9.0 0.00 0.17 0.17 81 1015.1
20260902184543 81 220 1.0 6.0 0.00 0.17 0.17 81 1015.0
20260902183042 81 80 1.0 4.0 0.00 0.17 0.17 81 1014.7
20260902181541 82 232 1.0 4.0 0.00 0.17 0.17 80 1014.4
20260902180040 81 143 0.0 2.0 0.00 0.17 0.17 83 1014.9
20260902174540 81 304 1.0 4.0 0.00 0.17 0.17 80 1015.2
20260902173039 82 355 1.0 8.0 0.00 0.17 0.17 80 1015.5
20260902171539 83 115 1.0 7.0 0.00 0.17 0.17 79 1015.9
20260902170037 83 348 1.0 6.0 0.00 0.17 0.17 80 1015.7
20260902164535 82 273 1.0 7.0 0.00 0.17 0.17 79 1015.5
20260902163036 82 161 1.0 9.0 0.00 0.17 0.17 84 1015.5
20260902161537 81 192 0.0 4.0 0.00 0.17 0.17 84 1015.7
20260902160027 80 150 0.0 5.0 0.00 0.17 0.17 88 1015.8
20260902154523 78 350 0.0 2.0 0.00 0.17 0.17 94 1015.8
20260902153121 75 136 1.0 4.0 0.00 0.17 0.17 96 1016.0
20260902151524 73 181 1.0 7.0 0.00 0.17 0.17 98 1016.0
20260902150013 71 281 0.0 4.0 0.00 0.17 0.17 99 1016.3
20260902144510 70 84 0.0 3.0 0.00 0.17 0.17 99 1016.5
20260902143010 69 162 1.0 5.0 0.00 0.17 0.17 99 1016.5
20260902141510 69 148 1.0 4.0 0.00 0.17 0.17 99 1016.5
20260902140013 68 132 3.0 5.0 0.00 0.17 0.17 99 1017.0
20260902134517 68 175 0.0 2.0 0.02 0.17 0.17 99 1017.1
20260902133008 69 217 0.0 2.0 0.05 0.17 0.17 99 1017.5
20260902131508 69 306 0.0 2.0 0.13 0.17 0.17 99 1016.5
20260902130007 70 290 1.0 3.0 0.16 0.17 0.17 99 1017.5
20260902124509 70 42 0.0 4.0 0.14 0.15 0.15 99 1017.6
20260902123003 71 295 1.0 12.0 0.10 0.11 0.11 99 1017.4
20260902121601 71 291 0.0 3.0 0.03 0.04 0.04 99 1017.1
20260902120100 71 167 0.0 5.0 0.00 0.01 0.01 99 1016.1
20260902114659 71 175 0.0 2.0 0.00 0.01 0.01 99 1015.7
20260902113103 70 149 0.0 3.0 0.00 0.01 0.01 99 1015.2
20260902111557 70 150 1.0 3.0 0.00 0.01 0.01 99 1014.1
20260902110052 70 171 1.0 5.0 0.01 0.01 0.01 99 1014.9
20260902104613 70 167 2.0 5.0 0.01 0.01 0.01 99 1014.7
20260902103047 70 161 1.0 5.0 0.01 0.01 0.01 99 1015.0
20260902101547 70 178 1.0 5.0 0.01 0.01 0.01 99 1014.8
20260902100106 69 176 1.0 2.0 0.00 0.00 0.00 99 1014.8
20260902094541 69 176 1.0 3.0 0.00 0.00 0.00 99 1015.1
20260902093040 69 176 0.0 2.0 0.00 0.00 0.00 99 1015.7
20260902091539 69 176 0.0 2.0 0.00 0.00 0.00 99 1015.7
20260902090037 69 176 1.0 3.0 0.00 0.00 0.00 99 1015.7
20260902084537 69 179 1.0 2.0 0.00 0.00 0.00 99 1015.9
20260902083035 68 173 0.0 3.0 0.00 0.00 0.00 99 1015.9
20260902081546 68 173 0.0 2.0 0.00 0.00 0.00 99 1016.1
20260902080034 68 173 0.0 2.0 0.00 0.00 0.00 99 1016.1
20260902074531 68 173 0.0 2.0 0.00 0.01 0.00 99 1016.3
20260902073031 68 176 1.0 2.0 0.00 0.01 0.00 98 1016.3
20260902071536 68 163 0.0 1.0 0.00 0.01 0.00 98 1016.5
20260902070034 69 163 0.0 2.0 0.00 0.01 0.00 98 1016.4
20260902064529 69 176 1.0 3.0 0.00 0.01 0.00 98 1016.5
20260902063034 69 157 0.0 3.0 0.00 0.01 0.00 98 1016.4
20260902061528 69 183 1.0 3.0 0.00 0.01 0.00 98 1016.3
20260902060032 69 188 0.0 2.0 0.00 0.01 0.00 98 1016.5
20260902054525 69 188 0.0 2.0 0.00 0.02 0.00 98 1016.5
20260902053024 68 273 0.0 0.0 0.00 0.02 0.00 98 1016.7
20260902051521 68 273 0.0 0.0 0.00 0.02 0.00 98 1016.7
20260902050023 67 273 0.0 0.0 0.00 0.02 0.00 98 1016.7
20260902044536 67 273 0.0 0.0 0.00 0.04 0.00 98 1016.7
20260902043020 68 273 0.0 0.0 0.00 0.04 0.00 98 1016.6
20260902041520 68 273 0.0 0.0 0.00 0.04 0.00 98 1016.5
20260902040016 68 273 0.0 0.0 0.00 0.04 0.00 97 1016.6
20260902034515 68 273 0.0 0.0 0.00 0.04 0.04 97 1016.6
20260902033014 69 273 0.0 0.0 0.00 0.04 0.04 98 1016.5